This is the latest recevied weather packets stored in our database for station/object IU5GBO-13. If no packets are shown the sender has not sent any weather packets the latest 10 day(s).
| Time | Temp. | Humidity | Pressure | Rain* | Wind** | Luminosity | Snow |
|---|---|---|---|---|---|---|---|
| 1777137450 | 19.44° C | 38% | 1017.5 hPa | - | - | - | - |
| 1777136850 | 19.44° C | 37% | 1017.4 hPa | - | - | - | - |
| 1777136251 | 20° C | 35% | 1017.4 hPa | - | - | - | - |
| 1777135651 | 20° C | 34% | 1017.5 hPa | - | - | - | - |
| 1777135051 | 20.56° C | 36% | 1017.5 hPa | - | - | - | - |
| 1777134451 | 20.56° C | 37% | 1017.5 hPa | - | - | - | - |
| 1777133851 | 20.56° C | 37% | 1017.4 hPa | - | - | - | - |
| 1777133251 | 21.11° C | 36% | 1017.4 hPa | - | - | - | - |
| 1777132651 | 20.56° C | 37% | 1017.5 hPa | - | - | - | - |
| 1777132051 | 21.11° C | 37% | 1017.4 hPa | - | - | - | - |
| 1777131450 | 21.11° C | 36% | 1017.5 hPa | - | - | - | - |
| 1777130850 | 21.11° C | 37% | 1017.6 hPa | - | - | - | - |
| 1777130251 | 21.11° C | 36% | 1017.6 hPa | - | - | - | - |
| 1777129651 | 21.67° C | 34% | 1017.6 hPa | - | - | - | - |
| 1777129051 | 21.67° C | 36% | 1017.7 hPa | - | - | - | - |
| 1777128450 | 21.67° C | 36% | 1017.7 hPa | - | - | - | - |
| 1777127851 | 21.67° C | 35% | 1017.7 hPa | - | - | - | - |
| 1777127251 | 21.67° C | 33% | 1017.7 hPa | - | - | - | - |
| 1777126651 | 22.22° C | 33% | 1017.9 hPa | - | - | - | - |
| 1777126051 | 22.22° C | 33% | 1017.8 hPa | - | - | - | - |
| 1777125451 | 22.78° C | 30% | 1017.9 hPa | - | - | - | - |
| 1777124851 | 22.22° C | 30% | 1018 hPa | - | - | - | - |
| 1777124250 | 22.78° C | 28% | 1018 hPa | - | - | - | - |
| 1777123650 | 22.78° C | 28% | 1018.1 hPa | - | - | - | - |
| 1777123050 | 22.78° C | 27% | 1018.1 hPa | - | - | - | - |
* Rain since midnight (hover to see other rain measurements)
** Current wind speed in m/s (hover to see current wind gust speed)